Location: Ar Ranvel
(48.3000°N, 4.8833°W)
Time: 18:20:40
(UTC+00:00)

Cosmos 2322 Rocket - Pass Details

Date: 27 October 2021
Orbit: 832 x 851 km, 71.0° (Epoch: 27 November)

Event Time Altitude Azimuth Distance (km) Brightness Sun altitude
Rises 19:01:48 0° 226° (SW) 3,367 6.0 -19.4°
Reaches altitude 10° 19:04:19 10° 232° (SW) 2,438 5.3 -19.8°
Maximum altitude 19:09:41 46° 305° (NW) 1,107 3.1 -20.7°
Drops below altitude 10° 19:15:07 10° 19° (NNE) 2,460 4.5 -21.6°
Enters shadow 19:16:48 - 24° (NNE) 3,074 4.9 -21.9°
